GW2464 Weather Reports


time (UTC)temp
C
wind
direction
speed
KPH
gust
KPH
rain 1hr
cm
rain 24hr
cm
rain mn
cm
humidity
%
barometer
mb
20260504150802 14 258 8.0 9.7 0.00 0.00 0.00 49 1011.0
20260504150259 15 254 6.4 9.7 0.00 0.00 0.00 48 1011.0
20260504141229 13 195 8.0 9.7 0.00 0.00 0.00 50 1011.3
20260504140725 13 282 12.9 16.1 0.00 0.00 0.00 50 1011.2
20260504140220 13 182 6.4 8.0 0.00 0.00 0.00 50 1011.2
20260504130649 11 180 6.4 9.7 0.00 0.00 0.00 54 1011.8
20260504130146 11 171 9.7 11.3 0.00 0.00 0.00 54 1011.8
20260504120110 10 183 8.0 9.7 0.00 0.00 0.00 56 1011.9
20260504110538 3 8 1.6 1.6 0.00 0.00 0.00 83 1011.8
20260504100454 1 2 1.6 3.2 0.00 0.00 0.00 89 1011.9
20260504081847 2 359 0.0 0.0 0.00 0.00 0.00 87 1011.9
20260504081343 2 355 0.0 0.0 0.00 0.00 0.00 87 1012.0
20260504080839 2 352 0.0 0.0 0.00 0.00 0.00 86 1011.8
20260504080337 2 348 0.0 1.6 0.00 0.00 0.00 86 1011.9
20260504070304 5 223 4.8 4.8 0.00 0.00 0.00 70 1011.7
20260504060224 4 187 4.8 4.8 0.00 0.00 0.00 75 1011.5
20260504050652 2 13 1.6 1.6 0.00 0.00 0.00 85 1011.6
20260504050149 2 14 1.6 1.6 0.00 0.00 0.00 88 1011.5
20260504045646 2 10 1.6 1.6 0.00 0.00 0.00 89 1011.3
20260504045146 2 0 1.6 3.2 0.00 0.00 0.00 88 1011.2
20260504044644 2 6 1.6 1.6 0.00 0.00 0.00 89 1011.5
20260504044141 2 25 1.6 1.6 0.00 0.00 0.00 89 1011.6
20260504043638 2 11 1.6 3.2 0.00 0.00 0.00 90 1011.5
20260504043135 2 356 1.6 1.6 0.00 0.00 0.00 89 1011.4
20260504042632 2 13 0.0 0.0 0.00 0.00 0.00 88 1011.5
20260504042129 2 7 1.6 1.6 0.00 0.00 0.00 86 1011.4
20260504041625 2 14 0.0 1.6 0.00 0.00 0.00 86 1011.6
20260504041121 2 9 3.2 3.2 0.00 0.00 0.00 86 1011.5
20260504040618 2 10 1.6 1.6 0.00 0.00 0.00 87 1011.4
20260504040115 2 8 0.0 1.6 0.00 0.00 0.00 88 1011.5
20260504035612 2 3 0.0 1.6 0.00 0.00 0.00 87 1011.5
20260504035108 3 10 0.0 1.6 0.00 0.00 0.00 86 1011.8
20260504034606 3 7 0.0 1.6 0.00 0.00 0.00 85 1011.5
20260504034103 3 13 0.0 1.6 0.00 0.00 0.00 85 1011.6
20260504033601 3 15 1.6 1.6 0.00 0.00 0.00 87 1011.5
20260504033058 3 12 1.6 3.2 0.00 0.00 0.00 85 1011.6
20260504032555 3 2 0.0 0.0 0.00 0.00 0.00 87 1011.5
20260504032052 4 14 1.6 1.6 0.00 0.00 0.00 85 1011.6
20260504031549 4 8 1.6 1.6 0.00 0.00 0.00 81 1011.5
20260504031045 5 22 1.6 1.6 0.00 0.00 0.00 83 1011.5
20260504030542 4 32 1.6 3.2 0.00 0.00 0.00 83 1011.5
20260504030038 4 24 1.6 1.6 0.00 0.00 0.00 85 1011.4
20260504025536 4 10 1.6 3.2 0.00 0.00 0.00 86 1011.3
20260504025032 4 354 0.0 0.0 0.00 0.00 0.00 84 1011.2
20260504024529 4 354 0.0 0.0 0.00 0.00 0.00 83 1011.5
20260504024026 4 354 0.0 0.0 0.00 0.00 0.00 83 1011.5
20260504023523 4 354 0.0 0.0 0.00 0.00 0.00 82 1011.4
20260504023018 4 354 0.0 0.0 0.00 0.00 0.00 82 1011.5
20260504022514 4 354 0.0 0.0 0.00 0.00 0.00 82 1011.4
20260504022011 5 359 0.0 0.0 0.00 0.00 0.00 83 1011.3
20260504021509 5 356 0.0 0.0 0.00 0.00 0.00 84 1011.4
20260504021006 5 356 0.0 0.0 0.00 0.00 0.00 81 1011.3
20260504020502 5 357 0.0 0.0 0.00 0.00 0.00 81 1011.3
20260504015959 5 1 0.0 0.0 0.00 0.00 0.00 81 1011.5
20260504015455 5 1 0.0 0.0 0.00 0.00 0.00 80 1011.4
20260504014951 5 4 0.0 0.0 0.00 0.00 0.00 80 1011.3
20260504014447 4 4 0.0 0.0 0.00 0.00 0.00 80 1011.3
20260504013944 4 4 0.0 0.0 0.00 0.00 0.00 81 1011.2
20260504013443 4 4 0.0 0.0 0.00 0.00 0.00 81 1011.1
20260504012938 5 4 0.0 0.0 0.00 0.00 0.00 79 1011.2
20260504012437 5 4 0.0 0.0 0.00 0.00 0.00 77 1011.1
20260504011934 5 4 0.0 0.0 0.00 0.00 0.00 77 1011.2
20260504011430 5 4 0.0 0.0 0.00 0.00 0.00 78 1011.1
20260504010926 5 3 0.0 0.0 0.00 0.00 0.00 77 1011.0
20260504010422 5 3 1.6 1.6 0.00 0.00 0.00 76 1011.1
20260504005919 5 3 1.6 1.6 0.00 0.00 0.00 76 1011.1
20260504005415 5 1 1.6 1.6 0.00 0.00 0.00 77 1011.0
20260504004913 6 4 0.0 0.0 0.00 0.00 0.00 74 1011.1
20260504004411 6 8 1.6 1.6 0.00 0.00 0.00 73 1011.0
20260504003908 6 12 1.6 1.6 0.00 0.00 0.00 73 1011.1
20260504003404 6 351 1.6 1.6 0.00 0.00 0.00 72 1011.0
20260504002901 7 347 0.0 1.6 0.00 0.00 0.00 72 1011.0
20260504002358 7 6 0.0 0.0 0.00 0.00 0.00 68 1010.8
20260504001855 7 359 0.0 1.6 0.00 0.00 0.00 66 1010.7
20260504001352 7 356 0.0 0.0 0.00 0.00 0.00 65 1010.8
20260504000849 8 0 0.0 0.0 0.00 0.00 0.00 64 1010.6
20260504000346 8 2 0.0 0.0 0.00 0.00 0.00 60 1010.8
20260503235844 9 355 0.0 0.0 0.00 0.00 0.00 61 1010.3
20260503235341 9 358 0.0 0.0 0.00 0.00 0.00 58 1010.6
20260503234838 10 350 0.0 0.0 0.00 0.00 0.00 60 1010.1
20260503234336 10 322 1.6 3.2 0.00 0.00 0.00 52 1010.8
20260503233834 10 289 1.6 1.6 0.00 0.00 0.00 52 1010.6
20260503233329 10 253 1.6 3.2 0.00 0.00 0.00 52 1010.3
20260503232826 10 337 1.6 1.6 0.00 0.00 0.00 52 1010.3
20260503232323 10 284 3.2 4.8 0.00 0.00 0.00 51 1010.3
20260503231821 10 230 4.8 4.8 0.00 0.00 0.00 50 1010.3
20260503231318 11 280 4.8 4.8 0.00 0.00 0.00 50 1010.4
20260503230814 11 303 1.6 1.6 0.00 0.00 0.00 51 1010.2
20260503230311 11 300 4.8 4.8 0.00 0.00 0.00 52 1010.3
20260503225809 10 220 4.8 4.8 0.00 0.00 0.00 51 1010.6
20260503225305 11 226 4.8 4.8 0.00 0.00 0.00 51 1010.2
20260503224801 10 244 3.2 3.2 0.00 0.00 0.00 52 1010.2
20260503224259 11 249 4.8 4.8 0.00 0.00 0.00 51 1010.4
20260503223756 11 340 1.6 1.6 0.00 0.00 0.00 52 1010.6
20260503223253 11 275 4.8 4.8 0.00 0.00 0.00 49 1010.4
20260503222749 11 279 4.8 4.8 0.00 0.00 0.00 50 1010.4
20260503222247 11 266 4.8 4.8 0.00 0.00 0.00 50 1010.2
20260503221746 10 278 8.0 9.7 0.00 0.00 0.00 51 1010.4
20260503221243 11 256 4.8 8.0 0.00 0.00 0.00 49 1010.4
20260503220740 11 293 8.0 9.7 0.00 0.00 0.00 50 1010.4
20260503220237 11 3 3.2 4.8 0.00 0.00 0.00 49 1010.4
20260503215733 11 208 6.4 8.0 0.00 0.00 0.00 49 1010.3
20260503215230 11 242 6.4 9.7 0.00 0.00 0.00 47 1010.6
20260503214728 11 264 9.7 11.3 0.00 0.00 0.00 48 1010.3
20260503214225 11 262 9.7 11.3 0.00 0.00 0.00 47 1010.3
20260503213723 11 299 6.4 8.0 0.00 0.00 0.00 47 1010.4
20260503213220 11 269 6.4 8.0 0.00 0.00 0.00 45 1010.3
20260503212717 11 257 6.4 8.0 0.00 0.00 0.00 45 1010.3
20260503212214 11 265 6.4 8.0 0.00 0.00 0.00 47 1010.1
20260503211712 11 260 3.2 4.8 0.00 0.00 0.00 45 1010.1
20260503211208 11 288 3.2 3.2 0.00 0.00 0.00 45 1010.0
20260503210704 11 321 9.7 12.9 0.00 0.00 0.00 44 1010.2
20260503210201 11 199 12.9 16.1 0.00 0.00 0.00 43 1009.9
20260503205656 11 276 9.7 12.9 0.00 0.00 0.00 43 1010.0
20260503205152 11 223 12.9 16.1 0.00 0.00 0.00 43 1010.0
20260503204649 11 232 6.4 8.0 0.00 0.00 0.00 43 1010.0
20260503204147 11 261 9.7 12.9 0.00 0.00 0.00 43 1010.1
20260503203644 11 270 9.7 14.5 0.00 0.00 0.00 43 1009.8
20260503203142 11 306 3.2 3.2 0.00 0.00 0.00 45 1009.8
20260503202638 11 313 9.7 11.3 0.00 0.00 0.00 42 1009.9
20260503202137 11 252 6.4 8.0 0.00 0.00 0.00 43 1010.0
20260503201634 11 247 11.3 16.1 0.00 0.00 0.00 42 1010.0
20260503201131 12 342 4.8 4.8 0.00 0.00 0.00 43 1009.9
20260503200627 11 346 4.8 8.0 0.00 0.00 0.00 41 1009.7
20260503200124 12 252 9.7 12.9 0.00 0.00 0.00 43 1010.0
20260503195621 11 79 1.6 3.2 0.00 0.00 0.00 42 1010.0
20260503195118 10 317 6.4 8.0 0.00 0.00 0.00 44 1010.0
20260503194615 11 281 8.0 11.3 0.00 0.00 0.00 42 1010.2
20260503194110 11 236 17.7 20.9 0.00 0.00 0.00 39 1009.9
20260503193607 11 272 6.4 8.0 0.00 0.00 0.00 40 1010.0
20260503193102 11 254 12.9 14.5 0.00 0.00 0.00 40 1010.6
20260503192558 11 276 4.8 8.0 0.00 0.00 0.00 40 1010.3
20260503192054 11 220 6.4 8.0 0.00 0.00 0.00 41 1010.6
20260503191551 10 227 14.5 14.5 0.00 0.00 0.00 41 1010.4
20260503191048 10 296 6.4 8.0 0.00 0.00 0.00 41 1010.8
20260503190545 11 248 8.0 9.7 0.00 0.00 0.00 41 1011.0
20260503190042 10 10 8.0 11.3 0.00 0.00 0.00 43 1010.7
20260503185539 10 291 4.8 8.0 0.00 0.00 0.00 43 1011.0
20260503185038 10 234 9.7 12.9 0.00 0.00 0.00 45 1010.9
20260503184535 11 337 8.0 9.7 0.00 0.00 0.00 42 1010.8
20260503184032 10 178 4.8 4.8 0.00 0.00 0.00 41 1010.9
20260503183528 10 311 3.2 4.8 0.00 0.00 0.00 43 1011.3
20260503183025 10 193 12.9 20.9 0.00 0.00 0.00 41 1011.4
20260503182524 11 292 4.8 4.8 0.00 0.00 0.00 43 1011.3
20260503182021 10 247 6.4 9.7 0.00 0.00 0.00 44 1011.4
20260503181518 10 303 9.7 12.9 0.00 0.00 0.00 46 1011.2
20260503181014 9 249 8.0 9.7 0.00 0.00 0.00 46 1011.3
20260503180512 9 237 11.3 12.9 0.00 0.00 0.00 43 1011.3
20260503180009 10 260 11.3 16.1 0.00 0.00 0.00 47 1011.2
20260503175506 9 290 6.4 8.0 0.00 0.00 0.00 45 1011.3
20260503175003 8 225 4.8 8.0 0.00 0.00 0.00 45 1011.4
20260503174501 8 315 8.0 9.7 0.00 0.00 0.00 45 1011.5
20260503173956 8 270 11.3 12.9 0.00 0.00 0.00 44 1011.6
20260503173452 8 253 4.8 4.8 0.00 0.00 0.00 46 1011.6
20260503172948 8 269 6.4 9.7 0.00 0.00 0.00 45 1011.6
20260503172446 8 304 14.5 17.7 0.00 0.00 0.00 43 1011.9
20260503171942 8 306 4.8 4.8 0.00 0.00 0.00 44 1011.6
20260503171439 9 171 3.2 4.8 0.00 0.00 0.00 46 1011.7
20260503170937 9 268 8.0 9.7 0.00 0.00 0.00 43 1011.3
20260503170432 8 345 4.8 4.8 0.00 0.00 0.00 45 1011.4